Mitchell, SD

6:34 PM CST on February 24, 2017 (GMT -0600)
Mitchell Municipal

Weather History for KMHE - January, 2013

Change the Weather History Date:

Wednesday, January 16, 2013

  Actual Average Record
Temperature  
Mean Temperature 31 °F 18 °F  
Max Temperature 41 °F 28 °F 53 °F (1974)
Min Temperature 20 °F 9 °F -21 °F (1953)
Degree Days  
Heating Degree Days 34 46  
Month to date heating degree days 723 747  
Since 1 July heating degree days 3573 3682  
Cooling Degree Days 0 0  
Month to date cooling degree days 0 0  
Year to date cooling degree days 0 0  
Moisture  
Dew Point 26 °F    
Average Humidity 77    
Maximum Humidity 89    
Minimum Humidity 65    
Precipitation  
Precipitation 0.00 in 0.01 in 0.24 in (1985)
Month to date precipitation 0.01 0.11  
Year to date precipitation 0.01 0.11  
Snow  
Snow 0.00 in - 4.00 in (1941)
Month to date snowfall T  
Since 1 July snowfall 10.4  
Snow Depth 2.00 in    
Sea Level Pressure  
Sea Level Pressure 30.06 in    
Wind  
Wind Speed 12 mph (NW)    
Max Wind Speed 22 mph    
Max Gust Speed 26 mph    
Visibility 10 miles    
Events      
T = Trace of Precipitation, MM = Missing Value Source: NWS Daily Summary

Daily Weather History Graph

Daily Weather History Graph

Search for Another Location

Airport or City:

Trip Planner

Search our weather history database for the weather conditions in past years. The results will help you decide how hot, cold, wet, or windy it might be!

Date:

Astronomy

Jan. 16, 2013 Rise Set
Actual Time 8:02 AM CST 5:22 PM CST
Civil Twilight 7:30 AM CST 5:54 PM CST
Nautical Twilight 6:54 AM CST 6:29 PM CST
Astronomical Twilight 6:20 AM CST 7:03 PM CST
Moon 10:27 AM CST (1/16) 11:28 PM CST (1/16)
Length of Visible Light 10h 23m
Length of Day
9h 20m
Waxing Crescent, 28% of the Moon is Illuminated
Jan 16
Waxing Crescent
Jan 18
First Quarter
Jan 26
Full
Feb 3
Last Quarter
Feb 10
New

Hourly Weather History & Observations

Time (CST) Temp. Windchill Dew Point Humidity Pressure Visibility Wind Dir Wind Speed Gust Speed Precip Events Conditions
12:53 AM 32.0 °F 22.5 °F 27.0 °F 82% 29.85 in 10.0 mi WSW 12.7 mph - 0.00 in   Overcast
2:53 AM 37.0 °F 28.1 °F 30.9 °F 79% 29.83 in 10.0 mi West 15.0 mph - N/A   Overcast
3:53 AM 37.0 °F 28.5 °F 30.9 °F 79% 29.83 in 10.0 mi WNW 13.8 mph - N/A   Overcast
4:53 AM 37.9 °F 30.0 °F 30.9 °F 76% 29.84 in 10.0 mi West 12.7 mph - N/A   Mostly Cloudy
5:53 AM 36.0 °F 27.1 °F 30.0 °F 79% 29.85 in 10.0 mi West 13.8 mph - N/A   Clear
6:53 AM 36.0 °F 28.0 °F 30.0 °F 79% 29.87 in 10.0 mi West 11.5 mph - N/A   Partly Cloudy
7:53 AM 36.0 °F 27.5 °F 30.0 °F 79% 29.88 in 10.0 mi West 12.7 mph - N/A   Clear
8:53 AM 35.1 °F 28.6 °F 28.9 °F 78% 29.90 in 10.0 mi West 8.1 mph - N/A   Clear
9:53 AM 37.0 °F 28.9 °F 30.0 °F 76% 29.91 in 10.0 mi West 12.7 mph - N/A   Clear
10:53 AM 39.0 °F 32.8 °F 30.0 °F 70% 29.93 in 10.0 mi West 9.2 mph - N/A   Clear
11:53 AM 39.9 °F 32.1 °F 30.0 °F 68% 29.93 in 10.0 mi West 13.8 mph - N/A   Clear
12:53 PM 39.9 °F 31.1 °F 30.0 °F 68% 29.93 in 10.0 mi WNW 17.3 mph - N/A   Clear
1:53 PM 41.0 °F 33.1 °F 30.9 °F 67% 29.96 in 10.0 mi WNW 15.0 mph - N/A   Partly Cloudy
2:53 PM 39.9 °F 31.4 °F 30.9 °F 70% 29.99 in 10.0 mi NW 16.1 mph - N/A   Clear
3:53 PM 39.9 °F 33.4 °F 30.9 °F 70% 30.04 in 10.0 mi NNW 10.4 mph - N/A   Overcast
4:53 PM 33.1 °F 25.5 °F 28.9 °F 85% 30.11 in 10.0 mi NNW 9.2 mph - N/A   Overcast
5:53 PM 30.9 °F 21.7 °F 27.0 °F 85% 30.15 in 10.0 mi NNW 11.5 mph - N/A   Clear
6:19 PM 30.2 °F 20.2 °F 26.6 °F 86% 30.14 in 10.0 mi NNW 12.7 mph - N/A   Mostly Cloudy
6:51 PM 28.4 °F 18.0 °F 24.8 °F 86% 30.16 in 10.0 mi NNW 12.7 mph - N/A   Overcast
6:53 PM 28.9 °F 18.2 °F 25.0 °F 85% 30.21 in 10.0 mi NNW 13.8 mph - N/A   Overcast
7:53 PM 26.1 °F 15.0 °F 21.9 °F 84% 30.27 in 10.0 mi North 12.7 mph - N/A   Overcast
8:21 PM 24.8 °F 14.0 °F 19.4 °F 80% 30.22 in 10.0 mi North 11.5 mph - N/A   Scattered Clouds
8:53 PM 23.0 °F 13.1 °F 18.0 °F 81% 30.28 in 10.0 mi NNE 9.2 mph - N/A   Clear
9:53 PM 19.9 °F 12.1 °F 15.1 °F 81% 30.31 in 10.0 mi North 5.8 mph - N/A   Clear
10:39 PM 21.2 °F - 15.8 °F 80% 30.26 in 10.0 mi Calm Calm - N/A   Overcast
10:53 PM 21.0 °F 16.2 °F 15.1 °F 78% 30.32 in 10.0 mi NW 3.5 mph - N/A   Overcast
11:37 PM 19.4 °F - 15.8 °F 86% 30.27 in 10.0 mi Calm Calm - N/A   Overcast
11:53 PM 19.9 °F 13.4 °F 15.1 °F 81% 30.34 in 10.0 mi WNW 4.6 mph - N/A   Overcast